Regional Weather Roundup
Issued by NWS

Home | Current Version | Previous Version | Graphics & Text | Print | Product List | Glossary On
Versions: 1 2 3 4 5 6 7 8 9 10 11 12 13 14 15 16 17 18 19 20 21 22 23 24 25 26 27 28 29 30 31 32 33 34 35 36 37 38 39 40 41 42 43 44 45 46 47 48 49 50
000
ASUS45 KBOI 212310
RWRID

IDAHO REGIONAL WEATHER ROUNDUP
NATIONAL WEATHER SERVICE BOISE ID
500 PM MDT THU MAY 21 2015

NOTE: "FAIR" INDICATES FEW OR NO CLOUDS BELOW 12000 FEET
WITH NO SIGNIFICANT WEATHER AND/OR OBSTRUCTIONS TO VISIBILITY

IDZ012-014-220000-
SOUTHWEST IDAHO


CITY           SKY/WX    TMP DP  RH WIND       PRES   REMARKS
BOISE          CLOUDY    73  45  36 VRB3      29.81F
CALDWELL       CLOUDY    66  46  48 N5        29.83F
MOUNTAIN HOME  PTSUNNY   71  37  29 S9        29.81F
$$

IDZ016-017-220000-
SOUTHCENTRAL IDAHO


CITY           SKY/WX    TMP DP  RH WIND       PRES   REMARKS
BURLEY         PTSUNNY   67  40  37 E7        29.86F
JEROME         CLOUDY    63  43  48 SE15      29.88S
TWIN FALLS     CLOUDY    59  45  59 SE16G22   29.88R
$$

IDZ019>023-220000-
SOUTHEAST IDAHO


CITY           SKY/WX    TMP DP  RH WIND       PRES   REMARKS
IDAHO FALLS    PTSUNNY   67  40  37 E9        29.90F
POCATELLO      MOSUNNY   68  42  38 NW12      29.88F
REXBURG        MOSUNNY   64  36  35 SE9       29.91F
$$

IDZ006-010-011-018-031-032-220000-
CENTRAL IDAHO MOUNTAINS


CITY           SKY/WX    TMP DP  RH WIND       PRES   REMARKS
MCCALL         PTSUNNY   59  43  55 SE14      29.91R
STANLEY          N/A     58  40  51 VRB5      29.96F
SALMON         PTSUNNY   59  45  58 SE5       29.91F
CHALLIS        CLOUDY    61  38  42 S6        29.92F
$$

IDZ002-004-006-007-026-220000-
NORTHERN IDAHO


CITY           SKY/WX    TMP DP  RH WIND       PRES   REMARKS
LEWISTON       CLOUDY    72  50  45 SW8       29.80F
LOWELL           N/A     80  46  30 N3        29.77F
COEUR D`ALENE  MOSUNNY   81  37  21 N3        29.78F
MULLAN PASS    MOSUNNY   65  33  30 MISG      29.96F
$$



USA.gov is the U.S. government's official web portal to all federal, state and local government web resources and services.